This demonstration page uses our WeatherBlox Daily Observations layout. Learn more.

Left ArrowRight Arrow

30.21309, -93.2044

Hourly Observations for July 24, 2022

Temp ( °F °C ) Dew Point ( °F °C ) Humidity (%) Winds ( mph kmh ) Pressure ( in mb ) Visibility ( mi km ) Precip ( " mm )
12:15 am 00:15 Clear 78 25.4 75 24 92 92 Calm 30.06 1018 10 16 0.00 0.00
12:35 am 00:35 Clear 77 25.1 75 23.8 93 93 S 3 6 30.06 1018 10 16 0.00 0.00
12:55 am 00:55 Clear 76 24.7 74 23.4 93 93 S 5 7 30.06 1018 10 16 0.00 0.00
1:15 am 01:15 Partly Cloudy 77 24.9 75 23.7 93 93 S 6 9 30.06 1018 10 16 0.00 0.00
1:35 am 01:35 Partly Cloudy 77 24.9 74 23.6 93 93 S 5 7 30.05 1018 10 16 0.00 0.00
1:55 am 01:55 Partly Cloudy 77 25 75 23.7 93 93 SSE 5 7 30.04 1017 10 16 0.00 0.00
2:15 am 02:15 Clear 77 24.9 75 23.7 93 93 SSE 5 7 30.04 1017 10 16 0.00 0.00
2:35 am 02:35 Partly Cloudy 77 25.1 75 23.9 93 93 SE 3 6 30.05 1018 10 16 0.00 0.00
2:55 am 02:55 Mostly Cloudy 78 25.3 75 24.1 93 93 E 3 6 30.05 1018 10 16 0.00 0.00
3:15 am 03:15 Mostly Cloudy 78 25.3 75 24 93 93 Calm 30.04 1017 10 16 0.00 0.00
3:35 am 03:35 Partly Cloudy 77 25.2 75 23.9 93 93 E 3 6 30.04 1017 10 16 0.00 0.00
3:55 am 03:55 Clear 77 25 75 23.8 93 93 ENE 3 6 30.04 1017 10 16 0.00 0.00
4:15 am 04:15 Clear 77 25.2 75 23.9 93 93 NE 3 6 30.05 1018 10 16 0.00 0.00
4:35 am 04:35 Clear 77 24.9 74 23.6 93 93 E 3 6 30.05 1018 10 16 0.00 0.00
4:55 am 04:55 Clear with Mist and Fog 75 24.1 74 23.1 94 94 Calm 30.05 1018 5 8 0.00 0.00
5:15 am 05:15 Clear with Mist and Fog 75 24 74 23.1 95 95 Calm 30.05 1018 3 5 0.00 0.00
5:35 am 05:35 Clear with Mist and Fog 75 24.1 74 23.3 95 95 Calm 30.05 1018 4 6 0.00 0.00
6:00 am 06:00 Mostly Clear 75 24 73 23 94 94 Calm 30.05 1018 10 16 0.00 0.00
6:50 am 06:50 Mostly Sunny 75 24 75 24 100 100 Calm 30.07 1018 10 16 0.00 0.00
7:45 am 07:45 Mostly Sunny 79 26 75 24 89 89 Calm 30.08 1019 10 16 0.00 0.00
8:45 am 08:45 Partly Cloudy 84 29 77 25 79 79 Calm 30.09 1019 10 16 0.00 0.00
9:50 am 09:50 Mostly Cloudy 88 31 77 25 70 70 S 6 9 30.09 1019 10 16 0.00 0.00
10:47 am 10:47 Mostly Cloudy 90 32 75 24 63 63 S 7 11 30.09 1019 10 16 0.00 0.00
11:55 am 11:55 Mostly Cloudy 91 33 73 23 56 56 S 7 11 30.09 1019 10 16 0.00 0.00
12:53 pm 12:53 Mostly Cloudy 91 33 75 24 59 59 SSE 5 7 30.07 1018 10 16 0.00 0.00
1:49 pm 13:49 Mostly Cloudy 93 34 75 24 56 56 S 9 15 30.05 1018 10 16 0.00 0.00
2:48 pm 14:48 Mostly Cloudy 93 34 73 23 53 53 S 15 24 30.04 1017 10 16 0.00 0.00
3:50 pm 15:50 Mostly Cloudy 93 34 73 23 53 53 S 13 20 30.03 1017 10 16 0.00 0.00
4:45 pm 16:45 Mostly Cloudy with Thunderstorms 93 34 75 24 56 56 S 15 24 30.03 1017 10 16 0.00 0.00
5:49 pm 17:49 Partly Cloudy 86 30 75 24 70 70 E 8 13 30.03 1017 10 16 0.00 0.00
6:55 pm 18:55 Mostly Cloudy 88 31 75 24 66 66 E 6 9 30.04 1017 10 16 0.00 0.00
7:50 pm 19:50 Partly Cloudy 88 31 75 24 66 66 S 9 15 30.01 1016 10 16 0.00 0.00
8:55 pm 20:55 Mostly Clear 82 28 75 24 79 79 SSE 8 13 30.03 1017 10 16 0.00 0.00
9:55 pm 21:55 Mostly Clear 75 24 75 24 100 100 SSE 8 13 30.04 1017 10 16 0.00 0.00
10:15 pm 22:15 Clear 79 26 75 24.1 89 89 S 5 7 30.04 1017 10 16 0.00 0.00
10:35 pm 22:35 Clear 79 26.2 75 24.1 88 88 SSE 5 7 30.04 1017 10 16 0.00 0.00
10:55 pm 22:55 Clear 78 25.6 75 24 91 91 SE 5 7 30.05 1018 10 16 0.00 0.00
11:15 pm 23:15 Clear 79 26.1 76 24.3 90 90 SSE 5 7 30.05 1018 10 16 0.00 0.00
11:35 pm 23:35 Clear 79 26 75 24.1 89 89 SSE 5 7 30.05 1018 10 16 0.00 0.00
11:55 pm 23:55 Clear 78 25.8 75 24 90 90 SSE 3 6 30.05 1018 10 16 0.00 0.00

Powered by AerisWeather